Preview of NWS' New Version of Forecast
This preview is not operational and should not be used for support decisions.

Regional Weather Roundup (RWR)

Issued by National Weather Service (NWS)

                            
000
ASCA42 TJSJ 171410
RWRPR 
PUERTO RICO/U.S. VIRGIN ISLANDS HOURLY WEATHER ROUNDUP
NATIONAL WEATHER SERVICE SAN JUAN PR
1000 AM AST WED APR 17 2019

PRZ001>002-007>008-010-171500-
PUERTO RICO
  
CITY           SKY/WX    TMP DP  RH WIND       PRES   REMARKS
SAN JUAN LMM   MOSUNNY   81  70  69 E16       30.04S                  
AGUADILLA      SUNNY     81  68  65 E20       30.06R                  
CEIBA          PTSUNNY   84  72  65 MISG      30.06S                  
$$

VIZ001>002-171500-
U.S. VIRGIN ISLANDS
  
CITY           SKY/WX    TMP DP  RH WIND       PRES   REMARKS
CHARLOTTE AMA  CLOUDY    82  68  61 E14       30.04R                  
CHRISTIANSTED  MOSUNNY   84  66  54 E21G26    30.04R                  
$$

HOURLY WEATHER ROUNDUP FOR THE NEWS MEDIA
  
CITY           SKY/WX    TMP DP  RH WIND       PRES   REMARKS
ORLANDO        FAIR      77  60  55 VRB7      30.14R                  
NEW YORK       PTSUNNY   52  32  46 NE7       30.18R                  
NEWARK         PTSUNNY   53  32  44 NE8       30.17S                  
CHICAGO        CLOUDY    49  44  83 E5        29.90F HAZE             
HARTFORD       FAIR      53  25  33 VRB6      30.14R                  
BOSTON         FAIR      54  25  32 NW14      30.15R                  
DALLAS         CLOUDY    70  65  84 SE16      29.83S                  
PHILADELPHIA   PTSUNNY   58  39  49 E12       30.14S                  
LOS ANGELES    PTCLDY    55  50  83 E3        30.13R                  
WASHINGTON DC  PTSUNNY   60  42  51 CALM      30.10R